Preview of NWS' New Version of Forecast
This preview is not operational and should not be used for support decisions.

Regional Weather Roundup (RWR)

Issued by National Weather Service (NWS)

                            
000
ASUS45 KCYS 180610
RWRWY 

WYOMING REGIONAL WEATHER ROUNDUP
NATIONAL WEATHER SERVICE CHEYENNE WY
1200 AM MDT THU APR 18 2019

NOTE:  "FAIR" INDICATES FEW OR NO CLOUDS BELOW 12,000 FEET
WITH NO SIGNIFICANT WEATHER AND/OR OBSTRUCTIONS TO VISIBILITY.

WYZ001-180700-
YELLOWSTONE NATIONAL PARK
  
CITY           SKY/WX    TMP DP  RH WIND       PRES   REMARKS
LK YELLOWSTONE NOT AVBL                                               
W YELLOWSTONE  NOT AVBL                                               

$$
WYZ002>013-054>058-071-098>099-180700-
NORTHERN WYOMING
  
CITY           SKY/WX    TMP DP  RH WIND       PRES   REMARKS
JACKSON        MOCLDY    41  31  67 SW10      30.22R                  
CODY           FAIR      39  24  55 N3        30.12R                  
GREYBULL       CLOUDY    48  29  47 NW12      30.07R                  
6HR MIN TEMP:  48; 6HR MAX TEMP:  55; 6HR PCP: TRACE;                

WORLAND        CLOUDY    42  35  76 S8        30.08R                  
6HR MIN TEMP:  40; 6HR MAX TEMP:  57;                                

SHERIDAN       CLOUDY    44  33  65 NW6       30.07R                  
6HR MIN TEMP:  37; 6HR MAX TEMP:  50;                                

BUFFALO        CLOUDY    39  31  72 CALM      30.07R                  
6HR MIN TEMP:  36; 6HR MAX TEMP:  47; 6HR PCP: TRACE;                

GILLETTE       FAIR      37  33  85 W14       30.04S WCI  28          
6HR MIN TEMP:  37; 6HR MAX TEMP:  51; 6HR PCP:  0.01;                

HULETT         FAIR      36  32  87 SW7       30.02  WCI  30          
NEWCASTLE      FAIR      37  32  81 N10       30.03  WCI  30          

$$
WYZ014>020-022>026-101>103-180700-
CENTRAL WYOMING
  
CITY           SKY/WX    TMP DP  RH WIND       PRES   REMARKS
BIG PINEY      FAIR      34  26  72 N10       30.22R WCI  26          
6HR MIN TEMP:  32; 6HR MAX TEMP:  46;                                

PINEDALE       FAIR      32  28  86 W7        30.21  WCI  26          
DUBOIS         FAIR      37  23  56 NW26G40   30.12  WCI  26          
LANDER         FAIR      42  22  44 SW7       30.10S                  
6HR MIN TEMP:  41; 6HR MAX TEMP:  55;                                

RIVERTON       FAIR      44  24  45 NW16      30.10R                  
6HR MIN TEMP:  44; 6HR MAX TEMP:  55;                                

CASPER         CLOUDY    33  32  96 N6        30.12R WCI  28          
6HR MIN TEMP:  33; 6HR MAX TEMP:  49;                                

DOUGLAS        MOCLDY    39  35  86 NW9       30.10R WCI  33          
6HR MIN TEMP:  35; 6HR MAX TEMP:  54; 6HR PCP: TRACE;                


$$
WYZ021-027>030-104>119-180700-
SOUTHERN WYOMING
  
CITY           SKY/WX    TMP DP  RH WIND       PRES   REMARKS
EVANSTON       MOCLDY    35  28  75 S8        30.29R WCI  29          
6HR MIN TEMP:  35; 6HR MAX TEMP:  42;                                

KEMMERER       FAIR      34  30  86 W18G24    30.25  WCI  23          
ROCK SPRINGS   CLOUDY    38  29  70 W21       30.21R WCI  28          
6HR MIN TEMP:  38; 6HR MAX TEMP:  50;                                

DIXON          CLOUDY    40  29  65 SW5       30.23R                  
RAWLINS        MOCLDY    39  26  59 W14       30.16R WCI  31          
6HR MIN TEMP:  36; 6HR MAX TEMP:  51;                                

SARATOGA       FAIR      36  27  69 W15       30.16S WCI  26          
LARAMIE        MOCLDY    33  32  96 NW9       30.11R WCI  25          
6HR MIN TEMP:  33; 6HR MAX TEMP:  51; 6HR PCP:  0.01;                

CHEYENNE       MOCLDY    36  35  96 NW9       30.09R WCI  29          
6HR MIN TEMP:  35; 6HR MAX TEMP:  55; 6HR PCP:  0.10;                

TORRINGTON     MOCLDY    42  36  79 NW12      30.04R                  
6HR MIN TEMP:  40; 6HR MAX TEMP:  58; 6HR PCP: TRACE;                

PINE BLUFFS    FAIR      36  36 100 NW9       30.08R WCI  29          

$$